{"data":{"norad_id":46045,"epoch":"2026-09-20T03:19:49.548288Z","epoch_age_seconds":49335,"freshness":"FRESH","line1":"1 46045U 20055U   26263.13876792  .00000912  00000+0  41145-4 0  9993","line2":"2 46045  53.1606 302.4866 0001380  87.9179 272.1980 15.31708061338650","mean_motion":15.31708061,"eccentricity":0.000138,"inclination_deg":53.1606,"raan_deg":302.4866,"arg_perigee_deg":87.9179,"mean_anomaly_deg":272.198,"bstar":4.1145e-5,"rev_number":33865,"period_min":94.012693192975,"perigee_km":469.7708242002,"apogee_km":471.66110761879,"semimajor_km":6848.8529659095,"source":"CELESTRAK","updated_at":"2026-09-20T09:00:38.461299Z"}}